Regional Weather Roundup
Issued by NWS Cleveland, OH

Home | Current Version | Previous Version | Graphics & Text | Print | Product List | Glossary On
Versions: 1 2 3 4 5 6 7 8 9 10 11 12 13 14 15 16 17 18 19 20 21 22 23 24 25 26 27 28 29 30 31 32 33 34 35 36 37 38 39 40 41 42 43 44 45 46 47 48 49 50
000
ASUS41 KCLE 081112
RWRCLE
OHIO REGIONAL WEATHER ROUNDUP
NATIONAL WEATHER SERVICE WILMINGTON, OH
600 AM EST THU DEC 08 2016

NOTE: "FAIR" INDICATES FEW OR NO CLOUDS BELOW 12,000 FEET WITH NO
SIGNIFICANT WEATHER AND/OR OBSTRUCTIONS TO VISIBILITY.

OHZ001>008-015>018-024>027-034-035-043-044-081200-
   NORTHWEST OHIO

CITY           SKY/WX    TMP DP  RH WIND       PRES   REMARKS
DEFIANCE       CLOUDY    25  15  66 W14G24    30.11R WCI  13
FINDLAY        CLOUDY    25  15  66 W21G31    30.10R WCI  11
TOLEDO EXPRESS CLOUDY    26  18  71 W21       30.07R WCI  12
TOLEDO EXEC    CLOUDY    27  19  72 W17G26    30.07S WCI  14
LIMA           CLOUDY    23  17  78 W20G28    30.12R WCI   8
$$

OHZ009>014-019>023-028>033-038-089-081200-
   NORTHEAST OHIO

CITY           SKY/WX    TMP DP  RH WIND       PRES   REMARKS
CLE-HOPKINS    CLOUDY    29  18  63 W15       30.06R WCI  18
CLE-LAKEFRONT  CLOUDY    29  19  66 SW16      30.03S WCI  17
CUY CO. ARPT   NOT AVBL
LORAIN-ELYRIA  CLOUDY    27  18  69 W13       30.06R WCI  16
ASHTABULA      CLOUDY    30  21  69 SW13      30.00S WCI  20
AKRON-CANTON   MOCLDY    28  19  69 W8        30.02S WCI  20
WOOSTER        MOCLDY    27  19  72 W18G24    30.04S WCI  14
MANSFIELD      CLOUDY    25  18  74 W9G21     30.05R WCI  15
YOUNGSTOWN     CLOUDY    28  20  71 SW14      30.00S WCI  17
$$

OHZ042-051>053-060>062-070>072-077>081-081200-
  SOUTHWEST OHIO

CITY           SKY/WX    TMP DP  RH WIND       PRES   REMARKS
CINC-COVINGTON MOCLDY    27  20  75 W10       30.20R WCI  17
CINC-LUNKEN    MOCLDY    29  20  69 W12       30.24R WCI  19
HAMILTON       CLOUDY    29  20  69 W8        30.22R WCI  21
DAYTON         CLOUDY    25  17  72 W15       30.16R WCI  13
WRIGHT-PAT AFB FAIR      26  16  67 W14       30.16R WCI  14
DAYTON GENERAL CLOUDY    27  17  66 NW12      30.16R WCI  17
WILMINGTON     MOCLDY    27  18  69 W17       30.15R WCI  14
$$

OHZ036-037-039>041-045>050-054>059-063>069-073>076-082>088-081200-
  CENTRAL AND SOUTHEAST OHIO

CITY           SKY/WX    TMP DP  RH WIND       PRES   REMARKS
COLUMBUS       CLOUDY    29  21  72 W15       30.12R WCI  18
OSU AIRPORT    CLOUDY    27  18  69 W16G25    30.12R WCI  15
BOLTON FIELD   CLOUDY    28  19  68 W9G16     30.13S WCI  19
RICKENBACK AFB   N/A     29  22  74 W15G21    30.14R WCI  18
NEWARK         CLOUDY    30  21  69 W12       30.10R WCI  20
MARION         CLOUDY    26  18  71 W15G23    30.10R WCI  14
LANCASTER      CLOUDY    30  23  75 W9        30.13R WCI  22
ZANESVILLE     CLOUDY    31  22  69 W7        30.09R WCI  24
NEW PHILLY     CLOUDY    30  23  75 VRB5      30.07R WCI  25
$$



USA.gov is the U.S. government's official web portal to all federal, state and local government web resources and services.